Bangkok (Don Mueang), Thailand

7:54 PM +07 on December 12, 2017 (GMT +0700)
Bangkok International

Weather History for VTBD - November, 2012

Change the Weather History Date:

Saturday, November 24, 2012

  Actual Average Record
Temperature  
Mean Temperature 84 °F -  
Max Temperature 90 °F 86 °F 93 °F (1997)
Min Temperature 77 °F 72 °F 68 °F (2001)
Cooling Degree Days 18    
Growing Degree Days 34 (Base 50)    
Moisture  
Dew Point 76 °F    
Average Humidity 81    
Maximum Humidity 94    
Minimum Humidity 61    
Precipitation  
Precipitation 0.35 in 0.03 in - ()
Sea Level Pressure  
Sea Level Pressure 29.81 in    
Wind  
Wind Speed 4 mph ()    
Max Wind Speed 17 mph    
Max Gust Speed -    
Visibility 5.2 miles    
Events Rain , Thunderstorm    
Averages and records for this station are not official NWS values.
T = Trace of Precipitation, MM = Missing Value Source: Averaged Metar Reports

Daily Weather History Graph

Daily Weather History Graph

Search for Another Location

Airport or City:

Trip Planner

Search our weather history database for the weather conditions in past years. The results will help you decide how hot, cold, wet, or windy it might be!

Date:

Astronomy

Nov. 24, 2012 Rise Set
Actual Time 6:21 AM +07 5:46 PM +07
Civil Twilight 5:59 AM +07 6:09 PM +07
Nautical Twilight 5:33 AM +07 6:35 PM +07
Astronomical Twilight 5:07 AM +07 7:01 PM +07
Moon 2:46 PM +07 (11/24) 2:41 AM +07 (11/24)
Length of Visible Light 12h 10m
Length of Day
11h 24m
Waxing Gibbous, 83% of the Moon is Illuminated
Nov 24
Waxing Gibbous
Nov 28
Full
Dec 6
Last Quarter
Dec 13
New
Dec 20
First Quarter

Hourly Weather History & Observations

Time (+07) Temp. Heat Index Dew Point Humidity Pressure Visibility Wind Dir Wind Speed Gust Speed Precip Events Conditions
12:00 AM 86.0 °F 96.9 °F 77.0 °F 74% 29.83 in 6.2 mi SSW 3.5 mph - N/A   Mostly Cloudy
12:30 AM 86.0 °F 96.9 °F 77.0 °F 74% 29.83 in 6.2 mi South 3.5 mph - N/A   Mostly Cloudy
1:00 AM 85 °F - 78 °F 74% 29.82 in 6 mi SSW 3.5 mph - -   Partly Cloudy
1:00 AM 86.0 °F 96.9 °F 77.0 °F 74% 29.80 in 6.2 mi SSW 3.5 mph - N/A   Mostly Cloudy
1:30 AM 86.0 °F 96.9 °F 77.0 °F 74% 29.80 in 6.2 mi SSW 3.5 mph - N/A   Mostly Cloudy
2:00 AM 84.2 °F 94.1 °F 77.0 °F 79% 29.80 in 6.2 mi SSW 5.8 mph - N/A   Mostly Cloudy
2:30 AM 84.2 °F 94.1 °F 77.0 °F 79% 29.80 in 6.2 mi SSW 5.8 mph - N/A   Mostly Cloudy
3:00 AM 84.2 °F 94.1 °F 77.0 °F 79% 29.77 in 6.2 mi Calm Calm - N/A   Mostly Cloudy
3:30 AM 84.2 °F 96.1 °F 78.8 °F 84% 29.77 in 6.2 mi Calm Calm - N/A   Scattered Clouds
4:00 AM 84.2 °F 96.1 °F 78.8 °F 84% 29.77 in 6.2 mi Calm Calm - N/A   Scattered Clouds
4:30 AM 82.4 °F 92.4 °F 78.8 °F 89% 29.77 in 6.2 mi East 3.5 mph - N/A   Scattered Clouds
5:00 AM 82.4 °F 92.4 °F 78.8 °F 89% 29.80 in 5.0 mi East 2.3 mph - N/A   Scattered Clouds
5:30 AM 82.4 °F 92.4 °F 78.8 °F 89% 29.80 in 3.1 mi SSE 3.5 mph - N/A   Scattered Clouds
6:00 AM 82.4 °F 92.4 °F 78.8 °F 89% 29.80 in 3.1 mi ESE 2.3 mph - N/A   Scattered Clouds
6:30 AM 80.6 °F 88.1 °F 78.8 °F 94% 29.80 in 2.5 mi East 3.5 mph - N/A   Mist
7:00 AM 81 °F - 78 °F 87% 29.81 in 6 mi East 2.3 mph - -   Mist
7:00 AM 80.6 °F 87.1 °F 77.0 °F 89% 29.80 in 2.5 mi East 2.3 mph - N/A   Mist
7:30 AM 80.6 °F 87.1 °F 77.0 °F 89% 29.80 in 3.1 mi East 4.6 mph - N/A   Mist
8:00 AM 82.4 °F 89.5 °F 75.2 °F 79% 29.83 in 3.1 mi East 3.5 mph - N/A   Mist
8:30 AM 84.2 °F 94.1 °F 77.0 °F 79% 29.86 in 4.3 mi ESE 3.5 mph - N/A   Mostly Cloudy
9:00 AM 84.2 °F 94.1 °F 77.0 °F 79% 29.86 in 4.3 mi SSE 3.5 mph - N/A   Mostly Cloudy
9:30 AM 86.0 °F 96.9 °F 77.0 °F 74% 29.89 in 5.0 mi East 5.8 mph - N/A   Mostly Cloudy
10:00 AM 86.0 °F 96.9 °F 77.0 °F 74% 29.89 in 5.0 mi East 3.5 mph - N/A   Mostly Cloudy
10:30 AM 86.0 °F 96.9 °F 77.0 °F 74% 29.89 in 5.0 mi East 3.5 mph - N/A   Mostly Cloudy
11:00 AM 87.8 °F 99.7 °F 77.0 °F 70% 29.86 in 5.0 mi SSW 3.5 mph - N/A   Mostly Cloudy
11:30 AM 87.8 °F 99.7 °F 77.0 °F 70% 29.86 in 5.0 mi Calm Calm - N/A   Mostly Cloudy
12:00 PM 89.6 °F 99.8 °F 75.2 °F 62% 29.83 in 5.6 mi West 4.6 mph - N/A   Mostly Cloudy
12:30 PM 89.6 °F 99.8 °F 75.2 °F 62% 29.80 in 6.2 mi West 5.8 mph - N/A   Mostly Cloudy
1:00 PM 90 °F - 78 °F 61% 29.79 in 6 mi SW 10.4 mph - -   Mist
1:00 PM 89.6 °F 104.7 °F 78.8 °F 70% 29.77 in 5.6 mi SW 10.4 mph - N/A   Mostly Cloudy
1:30 PM 86.0 °F 99.3 °F 78.8 °F 79% 29.77 in 5.0 mi West 17.3 mph - N/A   Mostly Cloudy
2:00 PM 86.0 °F 96.9 °F 77.0 °F 74% 29.77 in 5.6 mi NW 6.9 mph - N/A   Mostly Cloudy
2:30 PM 82.4 °F 89.5 °F 75.2 °F 79% 29.74 in 5.0 mi NW 6.9 mph - N/A Rain , Thunderstorm Light Thunderstorms and Rain
3:00 PM 82.4 °F 89.5 °F 75.2 °F 79% 29.74 in 5.0 mi NNW 5.8 mph - N/A   Mostly Cloudy
3:30 PM 84.2 °F 92.3 °F 75.2 °F 74% 29.74 in 5.0 mi NNE 10.4 mph - N/A   Mostly Cloudy
4:00 PM 82.4 °F 89.5 °F 75.2 °F 79% 29.74 in 5.0 mi NNE 10.4 mph - N/A   Mostly Cloudy
4:30 PM 80.6 °F 86.2 °F 75.2 °F 84% 29.77 in 6.2 mi East 13.8 mph - N/A   Mostly Cloudy
5:00 PM 80.6 °F 86.2 °F 75.2 °F 84% 29.77 in 5.0 mi ESE 13.8 mph - N/A Rain Light Rain
5:30 PM 80.6 °F 85.4 °F 73.4 °F 79% 29.77 in 5.0 mi South 5.8 mph - N/A   Mostly Cloudy
6:00 PM 78.8 °F - 75.2 °F 89% 29.80 in 5.0 mi South 5.8 mph - N/A Rain Rain
6:30 PM 77.0 °F - 73.4 °F 89% 29.80 in 5.0 mi South 3.5 mph - N/A   Mostly Cloudy
7:00 PM 77 °F - 72 °F 80% 29.83 in 5 mi East 3.5 mph - - Rain Light Rain
7:00 PM 77.0 °F - 71.6 °F 83% 29.83 in 5.0 mi East 3.5 mph - N/A Rain Rain
7:30 PM 77.0 °F - 73.4 °F 89% 29.83 in 5.0 mi NNE 2.3 mph - N/A Rain Rain
8:00 PM 77.0 °F - 75.2 °F 94% 29.83 in 4.3 mi SSE 2.3 mph - N/A Rain Light Rain
8:30 PM 77.0 °F - 75.2 °F 94% 29.83 in 5.0 mi NE 3.5 mph - N/A Rain Light Rain
9:00 PM 78.8 °F - 75.2 °F 89% 29.86 in 6.2 mi ENE 2.3 mph - N/A   Scattered Clouds
9:30 PM 78.8 °F - 75.2 °F 89% 29.86 in 6.2 mi Calm Calm - N/A   Scattered Clouds
10:00 PM 77.0 °F - 75.2 °F 94% 29.86 in 6.2 mi Calm Calm - N/A   Scattered Clouds
10:30 PM 78.8 °F - 75.2 °F 89% 29.86 in 6.2 mi Calm Calm - N/A   Scattered Clouds
11:00 PM 78.8 °F - 75.2 °F 89% 29.86 in 6.2 mi East 2.3 mph - N/A   Scattered Clouds
11:30 PM 77.0 °F - 75.2 °F 94% 29.86 in 6.2 mi ESE 2.3 mph - N/A   Scattered Clouds